Regional Weather Roundup
Issued by NWS Cleveland, OH

Home | Current Version | Previous Version | Text Only | Print | Product List | Glossary Off
Versions: 1 2 3 4 5 6 7 8 9 10 11 12 13 14 15 16 17 18 19 20 21 22 23 24 25 26 27 28 29 30 31 32 33 34 35 36 37 38 39 40 41 42 43 44 45 46 47 48 49 50

000
ASUS41 KCLE 290402
RWRCLE
OHIO REGIONAL WEATHER ROUNDUP
NATIONAL WEATHER SERVICE CLEVELAND, OH
1100 PM EST SUN DEC 28 2014

NOTE: "FAIR" INDICATES FEW OR NO CLOUDS BELOW 12,000 FEET WITH NO
SIGNIFICANT WEATHER AND/OR OBSTRUCTIONS TO VISIBILITY.

OHZ001>008-015>018-024>027-034-035-043-044-290500-
   NORTHWEST OHIO

CITY           SKY/WX    TMP DP  RH WIND       PRES   REMARKS
DEFIANCE       CLEAR     28  24  85 W5        30.22R WCI  23
FINDLAY        CLEAR     27  23  85 W5        30.19R WCI  22
TOLEDO EXPRESS CLEAR     26  22  84 W6        30.20R WCI  19
TOLEDO EXEC    CLEAR     26  21  81 W8        30.21R WCI  18
LIMA           PTCLDY    30  25  81 NW3       30.19R
$$

OHZ009>014-019>023-028>033-038-089-290500-
   NORTHEAST OHIO

CITY           SKY/WX    TMP DP  RH WIND       PRES   REMARKS
CLE-HOPKINS    PTCLDY    30  26  85 W3        30.20S
CLE-LAKEFRONT  MOCLDY    35  26  69 W12       30.18R WCI  27
CUY CO. ARPT   CLOUDY    36  28  75 NW9       30.18R
LORAIN-ELYRIA  CLEAR     29  26  89 W5        30.19R WCI  24
ASHTABULA      PTCLDY    32  29  88 CALM      30.16R
AKRON-CANTON   CLOUDY    34  27  75 NW8       30.16R WCI  27
WOOSTER        PTCLDY    30  27  88 NW7       30.17S WCI  23
MANSFIELD      CLEAR     29  26  89 W3        30.17R
YOUNGSTOWN     MOCLDY    32  27  81 W6        30.15R WCI  26
$$

OHZ042-051>053-060>062-070>072-077>081-290500-
  SOUTHWEST OHIO

CITY           SKY/WX    TMP DP  RH WIND       PRES   REMARKS
CINC-COVINGTON CLOUDY    33  26  75 N6        30.20R WCI  28
CINC-LUNKEN    CLOUDY    34  30  85 CALM      30.23R
HAMILTON       MOCLDY    32  28  85 N3        30.23R
DAYTON         MOCLDY    29  26  89 N5        30.20R WCI  24
WRIGHT-PAT AFB PTCLDY    30  27  88 N7        30.20R WCI  23
DAYTON GENERAL PTCLDY    30  26  85 N6        30.18R WCI  24
WILMINGTON     MOCLDY    31  27  85 N7        30.17S WCI  24
$$

OHZ036-037-039>041-045>050-054>059-063>069-073>076-082>088-290500-
  CENTRAL AND SOUTHEAST OHIO

CITY           SKY/WX    TMP DP  RH WIND       PRES   REMARKS
COLUMBUS       MOCLDY    32  26  78 N6        30.19R WCI  26
OSU AIRPORT    PTCLDY    30  25  81 NW5       30.19S WCI  25
BOLTON FIELD   NOT AVBL
RICKENBACK AFB MOCLDY    33  28  82 N5        30.19S WCI  29
NEWARK         CLOUDY    34  29  82 NW3       30.18R
MARION         PTCLDY    29  25  85 W3        30.19S
LANCASTER      CLOUDY    36  30  79 N6        30.18F
ZANESVILLE     CLOUDY    33  28  81 NW6       30.17S WCI  28
NEW PHILLY     CLOUDY    36  30  79 W3        30.18S
$$


USA.gov is the U.S. government's official web portal to all federal, state and local government web resources and services.